This is the latest recevied weather packets stored in our database for station/object VK2OB. If no packets are shown the sender has not sent any weather packets the latest 10 day(s).
| Time | Temp. | Humidity | Pressure | Rain* | Wind** | Luminosity | Snow |
|---|---|---|---|---|---|---|---|
| 1777247354 | 25° C | 52% | 1024.6 hPa | 0 mm | - | - | - |
| 1777247055 | 24.44° C | 55% | 1024.7 hPa | 0 mm | - | - | - |
| 1777246756 | 23.33° C | 61% | 1024.7 hPa | 0 mm | - | - | - |
| 1777246457 | 21.67° C | 62% | 1024.7 hPa | 0 mm | - | - | - |
| 1777246158 | 20.56° C | 66% | 1024.7 hPa | 0 mm | - | - | - |
| 1777245859 | 20.56° C | 66% | 1024.7 hPa | 0 mm | - | - | - |
| 1777245560 | 20° C | 65% | 1024.7 hPa | 0 mm | - | - | - |
| 1777245261 | 20.56° C | 65% | 1024.7 hPa | 0 mm | - | - | - |
| 1777244962 | 20° C | 69% | 1024.7 hPa | 0 mm | - | - | - |
| 1777244657 | 19.44° C | 71% | 1024.7 hPa | 0 mm | - | - | - |
| 1777244052 | 18.33° C | 74% | 1024.7 hPa | 0 mm | - | - | - |
| 1777243753 | 18.33° C | 75% | 1024.6 hPa | 0 mm | - | - | - |
| 1777243454 | 17.78° C | 74% | 1024.6 hPa | 0 mm | - | - | - |
| 1777243155 | 17.78° C | 76% | 1024.5 hPa | 0 mm | - | - | - |
| 1777242856 | 17.22° C | 76% | 1024.5 hPa | 0 mm | - | - | - |
| 1777242557 | 17.78° C | 77% | 1024.5 hPa | 0 mm | - | - | - |
| 1777242258 | 17.22° C | 78% | 1024.4 hPa | 0 mm | - | - | - |
| 1777241959 | 16.67° C | 80% | 1024.3 hPa | 0 mm | - | - | - |
| 1777241660 | 16.67° C | 81% | 1024.3 hPa | 0 mm | - | - | - |
| 1777241360 | 16.67° C | 81% | 1024.1 hPa | 0 mm | - | - | - |
| 1777241061 | 16.11° C | 82% | 1024.1 hPa | 0 mm | - | - | - |
| 1777240762 | 16.11° C | 82% | 1024.1 hPa | 0 mm | - | - | - |
| 1777240463 | 16.11° C | 83% | 1024.1 hPa | 0 mm | - | - | - |
| 1777240164 | 15.56° C | 85% | 1024.1 hPa | 0 mm | - | - | - |
| 1777239865 | 15.56° C | 85% | 1024 hPa | 0 mm | - | - | - |
* Rain latest hour (hover to see other rain measurements)
** Current wind speed in m/s (hover to see current wind gust speed)